Flight Track Log - Related Links

Times and Time Zones

All times are in EDT time to prevent confusion due to time zone crossing. See the SKW7432 flight status page for this flight to view local times or setup timezone preferences in your user account.

Time Position Orientation Groundspeed Altitude Reporting Facility
EDT Latitude Longitude Course Direction KTS MPH feet Rate Location/Type
Wed 02:32:39 PM 38.8358 -109.8283 345° North 224 258 9,400  Level Salt Lake Center
Wed 02:33:45 PM 38.9058 -109.8617 340° North 234 269 11,500 1,594 Climbing Denver Center
Wed 02:34:00 PM 39.0248 -109.9478 330° Northwest  Level FlightAware Approximate
Wed 02:34:47 PM 38.9631 -109.9061 329° Northwest 239 275 12,800  Level Denver Center
Wed 02:35:00 PM 39.0932 -110.0099 322° Northwest  Level FlightAware Approximate
Wed 02:35:44 PM 39.0206 -109.9586 325° Northwest 251 289 14,100  Level Salt Lake Center
Wed 02:36:00 PM 39.1648 -110.0654 333° Northwest  Level FlightAware Approximate
Wed 02:36:46 PM 39.0903 -110.0161 327° Northwest 257 296 15,800  Level Salt Lake Center
Wed 02:37:52 PM 39.1614 -110.0728 328° Northwest 263 303 17,300 1,561 Climbing Denver Center
Wed 02:38:49 PM 39.2236 -110.1225 328° Northwest 267 307 19,000 1,361 Climbing Salt Lake Center
Wed 02:39:51 PM 39.2856 -110.1711 329° Northwest 269 310 20,000 484 Climbing Salt Lake Center
Wed 02:40:53 PM 39.3381 -110.2356 316° Northwest 269 310 20,000  Level Salt Lake Center
Wed 02:41:54 PM 39.3861 -110.3239 305° West 269 310 20,000  Level Salt Lake Center
Wed 02:42:56 PM 39.4342 -110.3989 310° West 277 319 20,000  Level Salt Lake Center
Wed 02:43:58 PM 39.4892 -110.4889 308° West 283 326 20,000  Level Salt Lake Center
Wed 02:44:59 PM 39.5367 -110.5653 309° West 283 326 20,000  Level Salt Lake Center
Wed 02:46:01 PM 39.5919 -110.6547 309° West 283 326 20,000  Level Salt Lake Center
Wed 02:47:03 PM 39.6378 -110.7317 308° West 283 326 20,000  Level Salt Lake Center
Wed 02:48:04 PM 39.6864 -110.8081 310° West 284 327 20,000  Level Salt Lake Center
Wed 02:49:06 PM 39.7389 -110.8975 307° West 281 323 20,000  Level Salt Lake Center
Wed 02:50:08 PM 39.7858 -110.9747 308° West 281 323 20,000  Level Salt Lake Center
Wed 02:51:09 PM 39.8386 -111.0642 308° West 281 323 20,000 -98 Level Salt Lake Center
Wed 02:52:11 PM 39.8853 -111.1403 309° West 281 323 19,800 -488 Descending Salt Lake Center
Wed 02:53:12 PM 39.9339 -111.2200 309° West 288 331 19,000 -780 Descending Salt Lake Center
Wed 02:54:14 PM 39.9892 -111.3142 307° West 292 336 18,200 -1,016 Descending Salt Lake Center
Wed 02:55:16 PM 40.0439 -111.4050 308° West 294 338 16,900 -1,073 Descending Salt Lake Center
Wed 02:56:17 PM 40.0967 -111.4931 308° West 295 339 16,000 -568 Descending Salt Lake Center
Wed 02:56:51 PM 40.1217 -111.5478 301° West 303 349 16,000 -97 Level Salt Lake Center
Wed 02:57:19 PM 40.1433 -111.5833 309° West 299 344 15,900 -200 Descending Salt Lake Center
Wed 02:57:21 PM 40.1392 -111.5922 238° Southwest 284 327 15,900 -393 Level Salt Lake Center
Wed 02:58:20 PM 40.1772 -111.6750 301° West 283 326 15,500 -393 Descending Salt Lake Center
Wed 02:58:22 PM 40.1753 -111.6867 258° West 285 328 15,500 -1,579 Level Salt Lake Center
Wed 02:59:17 PM 40.2117 -111.7811 297° West 310 357 14,000 -1,500 Descending Salt Lake Center
Wed 02:59:22 PM 40.2139 -111.7756 62° Northeast 305 351 14,000 -1,612 Level Salt Lake Center
Wed 03:00:24 PM 40.2711 -111.8511 315° West 303 349 12,200 -1,538 Descending Salt Lake Center
Wed 03:01:19 PM 40.3328 -111.9031 327° Northwest 233 268 11,000 -1,180 Descending Salt Lake Center
Wed 03:01:25 PM 40.3339 -111.8992 69° East 254 292 11,000 -545 Level Salt Lake Center
Wed 03:02:14 PM 40.3794 -111.9322 331° Northwest 209 241 10,500 -581 Descending Salt Lake Center
Wed 03:02:27 PM 40.3864 -111.9289 20° North 214 246 10,400 -600 Descending Salt Lake Center
Wed 03:03:14 PM 40.4392 -111.9403 351° North 203 234 9,900 -387 Descending Salt Lake Center
Wed 03:03:29 PM 40.4428 -111.9356 45° Northeast 205 236 10,000  Climbing Salt Lake Center
Wed 03:04:15 PM 40.4897 -111.9456 351° North 183 211 9,900 -197 Descending Salt Lake Center
Wed 03:04:30 PM 40.5042 -111.9419 11° North 186 214 9,800 -1,164 Descending Salt Lake Center
Wed 03:05:22 PM 40.5469 -111.9517 350° North 190 219 8,600 -1,355 Descending Salt Lake Center
Wed 03:05:32 PM 40.5569 -111.9483 14° North 189 217 8,400 -787 Descending Salt Lake Center
Wed 03:06:23 PM 40.5997 -111.9564 352° North 183 211 7,800 -677 Descending Salt Lake Center
Wed 03:06:34 PM 40.6069 -111.9544 12° North 176 203 7,700 -1,082 Descending Salt Lake Center
Wed 03:07:24 PM 40.6503 -111.9617 353° North 177 204 6,700 -1,082 Descending Salt Lake Center
Wed 03:07:35 PM 40.6567 -111.9592 17° North 177 204 6,600 -900 Descending Salt Lake Center
Wed 03:08:24 PM 40.6983 -111.9653 354° North 176 203 5,800 -871 Descending Salt Lake Center
Wed 03:08:37 PM 40.7050 -111.9647 North 176 203 5,700 -787 Descending Salt Lake Center
Wed 03:09:25 PM 40.7383 -111.9714 351° North 140 161 5,000 -774 Descending Salt Lake Center
Wed 03:09:39 PM 40.7436 -111.9694 16° North 146 168 4,900 -640 Descending Salt Lake Center
Wed 03:10:40 PM 40.7794 -111.9733 355° North 135 155 4,200 -689 Descending Salt Lake Center

Login

Don't have an account? Register now (free) for customized features, flight alerts, and more!